Rotterdam, Netherlands

7:05 AM CEST on September 29, 2016 (GMT +0200)
Rotterdam

Weather History for EHRD - January, 2014

Change the Weather History Date:

Saturday, January 25, 2014

  Actual Average Record
Temperature  
Mean Temperature 40 °F -  
Max Temperature 44 °F 42 °F 57 °F (2016)
Min Temperature 37 °F 33 °F 8 °F (2013)
Degree Days  
Heating Degree Days 24    
Moisture  
Dew Point 34 °F    
Average Humidity 79    
Maximum Humidity 100    
Minimum Humidity 66    
Precipitation  
Precipitation 0.24 in - - ()
Sea Level Pressure  
Sea Level Pressure 29.93 in    
Wind  
Wind Speed 11 mph ()    
Max Wind Speed 27 mph    
Max Gust Speed 40 mph    
Visibility 8.2 miles    
Events Rain    
Averages and records for this station are not official NWS values.
T = Trace of Precipitation, MM = Missing Value Source: Averaged Metar Reports

Daily Weather History Graph

Daily Weather History Graph

Search for Another Location

Airport or City:

Trip Planner

Search our weather history database for the weather conditions in past years. The results will help you decide how hot, cold, wet, or windy it might be!

Date:

Astronomy

Jan. 25, 2014 Rise Set
Actual Time 8:32 AM CET 5:17 PM CET
Civil Twilight 7:54 AM CET 5:54 PM CET
Nautical Twilight 7:13 AM CET 6:36 PM CET
Astronomical Twilight 6:33 AM CET 7:16 PM CET
Moon 2:42 AM CET (1/25) 12:09 PM CET (1/25)
Length of Visible Light 10h 00m
Length of Day
8h 45m
Last Quarter, 37% of the Moon is Illuminated
Jan 25
Last Quarter
Jan 30
New
Feb 6
First Quarter
Feb 15
Full
Feb 22
Last Quarter

Hourly Weather History & Observations

Time (CET) Temp. Windchill Dew Point Humidity Pressure Visibility Wind Dir Wind Speed Gust Speed Precip Events Conditions
12:00 AM 37 °F - 32 °F 75% 30.05 in 11 mi SSE 8.9 mph - -   Scattered Clouds
12:25 AM 37.4 °F 30.8 °F 32.0 °F 81% 30.04 in 6.2 mi South 9.2 mph - N/A   Unknown
12:55 AM 37.4 °F 31.4 °F 32.0 °F 81% 30.04 in 6.2 mi South 8.1 mph - N/A   Unknown
1:00 AM 38 °F - 31 °F 68% 30.06 in 13 mi South 8.9 mph - -   Partly Cloudy
1:25 AM 37.4 °F 30.3 °F 30.2 °F 75% 30.04 in 6.2 mi South 10.4 mph - N/A   Unknown
1:55 AM 37.4 °F 30.3 °F 32.0 °F 81% 30.04 in 6.2 mi South 10.4 mph - N/A   Unknown
2:00 AM 38 °F - 31 °F 69% 30.05 in 12 mi South 11.2 mph - -   Mostly Cloudy
2:25 AM 37.4 °F 30.8 °F 32.0 °F 81% 30.04 in 6.2 mi South 9.2 mph - N/A   Unknown
2:55 AM 37.4 °F 31.4 °F 30.2 °F 75% 30.06 in 6.2 mi South 8.1 mph - N/A   Unknown
3:00 AM 38 °F - 31 °F 68% 30.07 in 14 mi South 8.9 mph - -   Overcast
3:25 AM 37.4 °F 31.4 °F 32.0 °F 81% 30.06 in 6.2 mi SSE 8.1 mph - N/A   Unknown
3:55 AM 37.4 °F 31.4 °F 32.0 °F 81% 30.06 in 6.2 mi SSE 8.1 mph - N/A   Unknown
4:00 AM 38 °F - 31 °F 66% 30.07 in 16 mi SSE 8.9 mph - -   Mostly Cloudy
4:25 AM 39.2 °F 34.2 °F 30.2 °F 70% 30.06 in 6.2 mi South 6.9 mph - N/A   Unknown
4:55 AM 37.4 °F 30.8 °F 30.2 °F 75% 30.04 in 6.2 mi SSE 9.2 mph - N/A   Unknown
5:00 AM 38 °F - 31 °F 68% 30.05 in 15 mi SSE 11.2 mph - -   Mostly Cloudy
5:25 AM 37.4 °F 31.4 °F 32.0 °F 81% 30.04 in 6.2 mi SSE 8.1 mph - N/A   Unknown
5:55 AM 37.4 °F 31.4 °F 32.0 °F 81% 30.04 in 6.2 mi SSE 8.1 mph - N/A   Partly Cloudy
6:00 AM 38 °F - 31 °F 68% 30.04 in 12 mi SSE 8.9 mph - -   Scattered Clouds
6:25 AM 37.4 °F 30.8 °F 32.0 °F 81% 30.04 in 6.2 mi SSE 9.2 mph - N/A   Unknown
6:55 AM 37.4 °F 30.8 °F 32.0 °F 81% 30.04 in 6.2 mi SSE 9.2 mph - N/A   Unknown
7:00 AM 38 °F - 31 °F 68% 30.04 in 11 mi SSE 11.2 mph - -   Partly Cloudy
7:25 AM 37.4 °F 30.3 °F 32.0 °F 81% 30.04 in 6.2 mi SSE 10.4 mph - N/A   Scattered Clouds
7:55 AM 37.4 °F 30.8 °F 32.0 °F 81% 30.04 in 6.2 mi SSE 9.2 mph - N/A   Partly Cloudy
8:00 AM 38 °F - 31 °F 68% 30.04 in 12 mi SSE 8.9 mph - -   Mostly Cloudy
8:25 AM 37.4 °F 30.8 °F 32.0 °F 81% 30.04 in 6.2 mi South 9.2 mph - N/A   Unknown
8:55 AM 37.4 °F 30.8 °F 32.0 °F 81% 30.04 in 6.2 mi South 9.2 mph - N/A   Unknown
9:00 AM 37 °F - 32 °F 75% 30.04 in 12 mi South 11.2 mph - -   Mostly Cloudy
9:25 AM 37.4 °F 30.8 °F 32.0 °F 81% 30.04 in 6.2 mi South 9.2 mph - N/A   Unknown
9:55 AM 37.4 °F 30.3 °F 32.0 °F 81% 30.04 in 6.2 mi South 10.4 mph - N/A   Mostly Cloudy
10:00 AM 38 °F - 32 °F 71% 30.04 in 12 mi SSE 11.2 mph - -   Overcast
10:25 AM 39.2 °F 32.0 °F 32.0 °F 75% 30.01 in 6.2 mi SSE 11.5 mph - N/A   Overcast
10:55 AM 39.2 °F 32.0 °F 32.0 °F 75% 30.01 in 6.2 mi South 11.5 mph - N/A   Overcast
11:00 AM 39 °F - 32 °F 68% 30.03 in 13 mi South 11.2 mph - -   Overcast
11:25 AM 39.2 °F 31.6 °F 33.8 °F 81% 30.01 in 6.2 mi South 12.7 mph - N/A   Mostly Cloudy
11:55 AM 39.2 °F 31.6 °F 33.8 °F 81% 30.01 in 6.2 mi South 12.7 mph - N/A   Overcast
12:00 PM 40 °F - 34 °F 70% 30.02 in 13 mi South 11.2 mph - -   Overcast
12:25 PM 41.0 °F 33.9 °F 33.8 °F 76% 30.01 in 6.2 mi South 12.7 mph - N/A   Overcast
12:55 PM 41.0 °F 34.3 °F 35.6 °F 81% 30.01 in 6.2 mi South 11.5 mph - N/A   Overcast
1:00 PM 41 °F - 35 °F 72% 30.00 in 15 mi South 13.4 mph - -   Partly Cloudy
1:25 PM 41.0 °F 33.9 °F 35.6 °F 81% 29.98 in 6.2 mi South 12.7 mph - N/A   Overcast
1:55 PM 41.0 °F 33.1 °F 35.6 °F 81% 29.98 in 6.2 mi South 15.0 mph - N/A   Overcast
2:00 PM 41 °F - 35 °F 73% 29.97 in 13 mi South 15.7 mph - -   Overcast
2:25 PM 41.0 °F 32.5 °F 35.6 °F 81% 29.95 in 6.2 mi South 17.3 mph - N/A   Overcast
2:55 PM 41.0 °F 32.2 °F 35.6 °F 81% 29.89 in 6.2 mi South 18.4 mph - N/A   Overcast
3:00 PM 41 °F - 36 °F 74% 29.89 in 17 mi South 17.9 mph - -   Overcast
3:25 PM 41.0 °F 32.8 °F 35.6 °F 81% 29.89 in 6.2 mi South 16.1 mph - N/A   Overcast
3:55 PM 41.0 °F 33.5 °F 35.6 °F 81% 29.89 in 6.2 mi South 13.8 mph - N/A   Overcast
4:00 PM 41 °F - 36 °F 75% 29.90 in 14 mi South 15.7 mph - -   Overcast
4:25 PM 41.0 °F 32.5 °F 35.6 °F 81% 29.89 in 6.2 mi South 17.3 mph - N/A   Overcast
4:55 PM 41.0 °F 32.8 °F 35.6 °F 81% 29.83 in 6.2 mi South 16.1 mph - N/A   Overcast
5:00 PM 41 °F - 36 °F 76% 29.84 in 15 mi South 17.9 mph - -   Overcast
5:25 PM 41.0 °F 33.1 °F 35.6 °F 81% 29.83 in 6.2 mi South 15.0 mph - N/A   Overcast
5:55 PM 41.0 °F 32.5 °F 35.6 °F 81% 29.80 in 6.2 mi South 17.3 mph - N/A   Overcast
6:00 PM 41 °F - 36 °F 77% 29.80 in 16 mi South 15.7 mph - -   Overcast
6:25 PM 41.0 °F 32.2 °F 37.4 °F 87% 29.77 in 6.2 mi South 18.4 mph - N/A   Overcast
6:55 PM 41.0 °F 31.9 °F 37.4 °F 87% 29.74 in 6.2 mi South 19.6 mph - N/A   Overcast
7:00 PM 41 °F - 38 °F 85% 29.74 in 9 mi South 17.9 mph - - Rain Rain
7:25 PM 41.0 °F 32.5 °F 39.2 °F 93% 29.71 in 6.2 mi South 17.3 mph - N/A   Partly Cloudy
7:55 PM 41.0 °F 32.5 °F 41.0 °F 100% 29.68 in - South 17.3 mph - N/A Rain Light Rain
8:00 PM 42 °F - 40 °F 91% 29.67 in 5 mi South 17.9 mph - - Rain Light Rain Showers
8:25 PM 42.8 °F 34.8 °F 41.0 °F 93% 29.62 in 3.7 mi South 17.3 mph - N/A Rain Light Rain
8:55 PM 42.8 °F 33.3 °F 39.2 °F 87% 29.65 in - WNW 24.2 mph 38.0 mph N/A Rain Rain Showers
9:00 PM 42 °F - 39 °F 85% 29.68 in 3 mi WNW 22.4 mph - - Rain Rain
9:25 PM 42.8 °F 34.3 °F 39.2 °F 87% 29.68 in 6.2 mi NW 19.6 mph - N/A Rain Light Rain
9:55 PM 41.0 °F 33.1 °F 39.2 °F 93% 29.68 in 3.7 mi WNW 15.0 mph 27.6 mph N/A Rain Light Rain Showers
10:00 PM 43 °F - 39 °F 82% 29.69 in 8 mi West 20.1 mph - - Rain Light Rain
10:25 PM 44.6 °F 35.9 °F 39.2 °F 81% 29.68 in 6.2 mi WNW 23.0 mph 38.0 mph N/A   Mostly Cloudy
10:55 PM 44.6 °F 35.7 °F 37.4 °F 76% 29.68 in 6.2 mi WNW 24.2 mph 40.3 mph N/A   Mostly Cloudy
11:00 PM 44 °F - 37 °F 70% 29.71 in 11 mi WNW 26.8 mph - - Rain Rain
11:25 PM 44.6 °F 35.3 °F 37.4 °F 76% 29.71 in 6.2 mi WNW 26.5 mph 40.3 mph N/A   Mostly Cloudy
11:55 PM 44.6 °F 35.9 °F 37.4 °F 76% 29.71 in 6.2 mi WNW 23.0 mph 34.5 mph N/A   Mostly Cloudy